TOURFACTS.DK  
Stats and Facts from Tour de France.

Tour de France 2018 starts in 12 days
  Riders   Stages   Teams   Summits   Yearly  


 
Search by year

After 2017 - Stage 21:
 14824 starters.
  5132 different riders.
  639 teams.
  2232 stages.
  456 restdays.
  439589.60 km.
  5653 abandonnees.


Top 3
GC
Christopher Froome86:20:55
Rigoberto Urán86:21:49
Romain Bardet86:23:15
Climb
Warren Barguil169 pt.
Primoz Roglic80 pt.
Thomas De Gendt64 pt.
Sprint
Michael Matthews359 pt.
André Greipel234 pt.
Edvald Boasson Hagen220 pt.
Youth
Simon Yates86:27:09
Louis Meintjes86:29:15
Emanuel Buchmann86:54:16
Facts from Tour de France 1949
  |   Stages.  |   Stage winners.  |   Days in yellow  |   Average speed.  |   Route.  |   Teams.  |   All riders.  |   Rookies.  |  

  |   Withdrawls.  |   GC.  |   Polka  |   Green  |   White  |   Summits. (In tour)  |   Miscellaneous.  |  

Stage 8 on 08 - 07 - 1949
         Owning:    Jacques Marinelli    
Pick a stage:  1 2 3 4 5 6 7 8 9 10 11 12 13 14 15 16 17 18 19 20 21
  La RochelleBordeaux | Dist: 262.00 km.

Average speed for all riders in stage:  34,902 km./hr.
    Place:Name:Team:Time:Km/h:
FRAGuy LapébieFRAFrance07:27:22  +  00:00:00=35,139 
BELRik Van SteenbergenBELBelgium07:27:22  +  00:00:00=35,139 
ITAGiuseppe TaccaFRAIle De France07:27:22  +  00:00:00=35,139 
4 FRAMaurice DiotFRAFrance07:27:22  +  00:00:00=35,139 
5 FRARobert DesbatsFRACenter-South West07:27:22  +  00:00:00=35,139 
6 FRALouis CaputFRAIle De France07:27:22  +  00:00:00=35,139 
7 BELRaymond ImpanisBELBelgium07:27:22  +  00:00:00=35,139 
8 ITAArmando PeverelliITACadetti Italiens07:27:22  +  00:00:00=35,139 
9 FRAJean BlancFRACenter-South West07:27:22  +  00:00:00=35,139 
10 BELFlorent MathieuBELBelgium07:28:53  +  00:01:31=35,020 
11 FRAJean-Marie GoasmatFRAWest-North07:28:53  +  00:01:31=35,020 
12 ITALuciano PezziITAItaly07:28:53  +  00:01:31=35,020 
13 GERCésar MarcelakFRAWest-North07:28:53  +  00:01:31=35,020 
14 FRARaphaël GeminianiFRAFrance07:28:53  +  00:01:31=35,020 
15 ITASylvio PedroniITACadetti Italiens07:28:53  +  00:01:31=35,020 
16 FRAJacques MarinelliFRAIle De France07:29:28  +  00:02:06=34,975 
17 FRARaymond LucasFRAIle De France07:29:28  +  00:02:06=34,975 
18 ITAVittorio MagniITACadetti Italiens07:29:28  +  00:02:06=34,975 
19 ITAAlfredo MartiniITACadetti Italiens07:29:28  +  00:02:06=34,975 
20 BELMarcel De MulderBELAiglons Belges07:29:28  +  00:02:06=34,975 
21 BELMarcel DupontBELAiglons Belges07:29:28  +  00:02:06=34,975 
22 BELMarcel HendrickxBELAiglons Belges07:29:28  +  00:02:06=34,975 
23 BELJoseph VerhaertBELAiglons Belges07:29:28  +  00:02:06=34,975 
24 FRAAndré BruléFRAIle De France07:29:28  +  00:02:06=34,975 
25 FRAEmile IdéeFRAIle De France07:29:28  +  00:02:06=34,975 
26 ITAGiuseppe AusendaITACadetti Italiens07:29:28  +  00:02:06=34,975 
27 FRAPierre CoganFRAWest-North07:29:28  +  00:02:06=34,975 
28 FRARoger Le NizerhyFRAWest-North07:29:28  +  00:02:06=34,975 
29 FRAJean ReyFRASouth-East07:29:28  +  00:02:06=34,975 
30 FRAGeorges MartinFRASouth-East07:29:28  +  00:02:06=34,975 
31 ITANello LaurediFRASouth-East07:29:28  +  00:02:06=34,975 
32 FRAPaul GiguetFRASouth-East07:29:28  +  00:02:06=34,975 
33 ITAAdolphe DeleddaFRASouth-East07:29:28  +  00:02:06=34,975 
34 ITAFermo CamelliniFRASouth-East07:29:28  +  00:02:06=34,975 
35 SUIPierre BrambillaFRASouth-East07:29:28  +  00:02:06=34,975 
36 FRAGeorges RamouluxFRACenter-South West07:29:28  +  00:02:06=34,975 
37 FRAPaul PineauFRACenter-South West07:29:28  +  00:02:06=34,975 
38 FRAHenri MassalFRACenter-South West07:29:28  +  00:02:06=34,975 
39 FRARoger LevequeFRACenter-South West07:29:28  +  00:02:06=34,975 
40 MARCustodio Dos ReisFRACenter-South West07:29:28  +  00:02:06=34,975 
41 FRAAlbert DolhatsFRACenter-South West07:29:28  +  00:02:06=34,975 
42 FRAJean RobicFRAWest-North07:29:28  +  00:02:06=34,975 
43 ITAÉdouard FachleitnerFRASouth-East07:29:28  +  00:02:06=34,975 
44 FRAAndre MahéFRAWest-North07:29:28  +  00:02:06=34,975 
45 FRAAntonin RollandFRASouth-East07:29:28  +  00:02:06=34,975 
46 ITAGino BartaliITAItaly07:29:28  +  00:02:06=34,975 
47 FRARobert ChapatteFRAFrance07:29:28  +  00:02:06=34,975 
48 FRALouison BobetFRAFrance07:29:28  +  00:02:06=34,975 
49 BELEdward Van DijckBELBelgium07:29:28  +  00:02:06=34,975 
50 BELBriek SchotteBELBelgium07:29:28  +  00:02:06=34,975 
51 BELStan OckersBELBelgium07:29:28  +  00:02:06=34,975 
52 BELRoger LambrechtBELBelgium07:29:28  +  00:02:06=34,975 
53 ITAGino SciardisITAItaly07:29:28  +  00:02:06=34,975 
54 ITAMario RicciITAItaly07:29:28  +  00:02:06=34,975 
55 ITAVincenzo RosselloITAItaly07:29:28  +  00:02:06=34,975 
56 ITABruno PasquiniITAItaly07:29:28  +  00:02:06=34,975 
57 ITAEttore MilanoITAItaly07:29:28  +  00:02:06=34,975 
58 ITAGuido De SantiITAItaly07:29:28  +  00:02:06=34,975 
59 ITAGiovanni CorrieriITAItaly07:29:28  +  00:02:06=34,975 
60 ITAFausto CoppiITAItaly07:29:28  +  00:02:06=34,975 
61 ITAAngelo BrignoleITAItaly07:29:28  +  00:02:06=34,975 
62 ITASerifano BiagioniITAItaly07:29:28  +  00:02:06=34,975 
63 FRALouis DeprezFRAFrance07:29:28  +  00:02:06=34,975 
64 FRABernard GauthierFRAFrance07:29:28  +  00:02:06=34,975 
65 NEDWim De RuyterNLDHolland07:29:28  +  00:02:06=34,975 
66 BELJacques GeusBELAiglons Belges07:29:28  +  00:02:06=34,975 
67 LUXJean KirchenLUXLuxembourg07:29:28  +  00:02:06=34,975 
68 LUXJean GoldschmitLUXLuxembourg07:29:28  +  00:02:06=34,975 
69 LUXMarcel ErnzerLUXLuxembourg07:29:28  +  00:02:06=34,975 
70 LUXJean DiederichLUXLuxembourg07:29:28  +  00:02:06=34,975 
71 SUIFerdi KüblerCHESwitzerland07:29:28  +  00:02:06=34,975 
72 SUIRoger AeschlimannCHESwitzerland07:29:28  +  00:02:06=34,975 
73 FRARené ViettoFRAFrance07:29:28  +  00:02:06=34,975 
74 FRAJean-Apotre LazaridesFRAFrance07:29:28  +  00:02:06=34,975 
75 SUIGeorges AeschlimannCHESwitzerland07:29:28  +  00:02:06=34,975 
76 FRALucien LazaridesFRAFrance07:29:28  +  00:02:06=34,975 
77 FRALucien TeisseireFRAFrance07:29:28  +  00:02:06=34,975 
78 FRAEdouard MullerFRAIle De France07:31:39  +  00:04:17=34,806 
79 FRACamille DanguillaumeFRAFrance07:38:05  +  00:10:43=34,317 
80 SUIGottfried WeilenmannCHESwitzerland07:39:37  +  00:12:15=34,202 
81 BELDésiré KeteleerBELBelgium07:43:08  +  00:15:46=33,943 
82 NEDHenk de HoogNLDHolland07:43:08  +  00:15:46=33,943 
83 NEDFrans PauwelsNLDHolland07:43:08  +  00:15:46=33,943 
84 BELMarcel KintBELBelgium07:43:08  +  00:15:46=33,943 
85 BELRoger GhyselinckBELBelgium07:43:08  +  00:15:46=33,943 
86 BELNorbert CallensBELBelgium07:43:08  +  00:15:46=33,943 

Withdrawls: 2
 
Rider
Team
Reason
89  FRAAnge Le StratFRAWest-NorthDid not finish
102  FRAMarcel DussaultFRACenter-South WestDid not finish

Todays birthdays.

1875  Jules Sales
1888  Leon Lannoy
1922  Henri Surbatis
1932  Ferdinand Devèze
1939  Dieter Puschel
1961  Gerhard Zadrobilek
1964  Javier Duch
1965  Clarence Knickman
1968  Michael Sandstød
1986  Simon Spilak




Visits: